Location: Maiden
(35.5760°N, 81.2120°W)
Time: 21:23:44
(UTC-04:00)

A-11 Canister half - Pass Details

Date: 16 August 2020
Orbit: 1514 x 1686 km, 47.2° (Epoch: 26 September)

Event Time Altitude Azimuth Distance (km) Brightness Sun altitude
Rises 01:06:52 0° 301° (WNW) 4,876 12.0 -40.6°
Reaches altitude 10° 01:10:11 10° 295° (WNW) 3,906 11.4 -40.6°
Enters shadow 01:15:35 32° 271° (W) 2,588 10.1 -40.7°
